Time,TemperatureF,DewpointF,PressureIn,WindDirection,WindDirectionDegrees,WindSpeedMPH,WindSpeedGustMPH,Humidity,HourlyPrecipIn,Conditions,Clouds,dailyrainin,SoftwareType,DateUTC
2013-01-20 00:02:00,41.0,36.0,30.25,WSW,249,6.0,6.0,81,0.00,,,0.00,,2013-01-20 06:02:00,
2013-01-20 00:12:00,41.0,36.0,30.25,WSW,249,6.0,6.0,81,0.00,,,0.00,,2013-01-20 06:12:00,
2013-01-20 00:22:00,40.0,35.0,30.25,WSW,253,4.0,4.0,82,0.00,,,0.00,,2013-01-20 06:22:00,
2013-01-20 00:33:00,39.0,34.0,30.25,WSW,256,4.0,4.0,83,0.00,,,0.00,,2013-01-20 06:33:00,
2013-01-20 00:42:00,39.0,34.0,30.25,WSW,256,4.0,4.0,83,0.00,,,0.00,,2013-01-20 06:42:00,
2013-01-20 00:53:00,39.0,34.0,30.24,WSW,243,5.0,5.0,83,0.00,,,0.00,,2013-01-20 06:53:00,
2013-01-20 01:02:00,38.0,34.0,30.24,WSW,256,5.0,5.0,84,0.00,,,0.00,,2013-01-20 07:02:00,
2013-01-20 01:12:00,38.0,34.0,30.24,WSW,256,5.0,5.0,84,0.00,,,0.00,,2013-01-20 07:12:00,
2013-01-20 01:22:00,36.0,32.0,30.24,WSW,253,4.0,4.0,86,0.00,,,0.00,,2013-01-20 07:22:00,
2013-01-20 01:32:00,35.0,32.0,30.24,SW,235,5.0,5.0,89,0.00,,,0.00,,2013-01-20 07:32:00,
2013-01-20 01:42:00,35.0,32.0,30.24,SW,235,5.0,5.0,89,0.00,,,0.00,,2013-01-20 07:42:00,
2013-01-20 01:52:00,34.0,32.0,30.24,SW,236,4.0,5.0,91,0.00,,,0.00,,2013-01-20 07:52:00,
2013-01-20 02:02:00,35.0,33.0,30.24,West,259,4.0,4.0,92,0.00,,,0.00,,2013-01-20 08:02:00,
2013-01-20 02:12:00,35.0,33.0,30.24,West,259,4.0,4.0,92,0.00,,,0.00,,2013-01-20 08:12:00,
2013-01-20 02:22:00,34.0,32.0,30.25,WSW,253,5.0,5.0,92,0.00,,,0.00,,2013-01-20 08:22:00,
2013-01-20 02:32:00,33.0,31.0,30.25,WSW,242,5.0,5.0,93,0.00,,,0.00,,2013-01-20 08:32:00,
2013-01-20 02:42:00,33.0,31.0,30.25,WSW,242,5.0,5.0,93,0.00,,,0.00,,2013-01-20 08:42:00,
2013-01-20 02:52:00,33.0,31.0,30.25,WSW,252,5.0,5.0,94,0.00,,,0.00,,2013-01-20 08:52:00,
2013-01-20 03:02:00,33.0,32.0,30.25,WSW,238,5.0,5.0,95,0.00,,,0.00,,2013-01-20 09:02:00,
2013-01-20 03:12:00,33.0,32.0,30.25,WSW,238,5.0,5.0,95,0.00,,,0.00,,2013-01-20 09:12:00,
2013-01-20 03:22:00,34.0,32.0,30.25,WSW,246,5.0,5.0,94,0.00,,,0.00,,2013-01-20 09:22:00,
2013-01-20 03:33:00,35.0,33.0,30.25,WSW,246,5.0,5.0,93,0.00,,,0.00,,2013-01-20 09:33:00,
2013-01-20 03:42:00,35.0,33.0,30.25,WSW,246,5.0,5.0,93,0.00,,,0.00,,2013-01-20 09:42:00,
2013-01-20 03:53:00,34.0,32.0,30.25,WSW,245,5.0,5.0,93,0.00,,,0.00,,2013-01-20 09:53:00,
2013-01-20 04:02:00,34.0,32.0,30.24,WSW,252,5.0,5.0,94,0.00,,,0.00,,2013-01-20 10:02:00,
2013-01-20 04:12:00,34.0,32.0,30.24,WSW,252,5.0,5.0,94,0.00,,,0.00,,2013-01-20 10:12:00,
2013-01-20 04:22:00,33.0,31.0,30.25,WSW,255,5.0,5.0,94,0.00,,,0.00,,2013-01-20 10:22:00,
2013-01-20 04:32:00,32.0,31.0,30.25,WSW,249,5.0,5.0,95,0.00,,,0.00,,2013-01-20 10:32:00,
2013-01-20 04:42:00,32.0,31.0,30.25,WSW,249,5.0,5.0,95,0.00,,,0.00,,2013-01-20 10:42:00,
2013-01-20 04:52:00,32.0,31.0,30.25,WSW,255,4.0,4.0,95,0.00,,,0.00,,2013-01-20 10:52:00,
2013-01-20 05:02:00,31.0,30.0,30.25,WSW,252,4.0,5.0,95,0.00,,,0.00,,2013-01-20 11:02:00,
2013-01-20 05:12:00,31.0,30.0,30.24,WSW,243,3.0,3.0,95,0.00,,,0.00,,2013-01-20 11:12:00,
2013-01-20 05:22:00,31.0,30.0,30.24,WSW,243,3.0,3.0,95,0.00,,,0.00,,2013-01-20 11:22:00,
2013-01-20 05:32:00,30.0,29.0,30.25,SW,225,0.0,0.0,96,0.00,,,0.00,,2013-01-20 11:32:00,
2013-01-20 05:42:00,30.0,29.0,30.25,SW,225,0.0,0.0,96,0.00,,,0.00,,2013-01-20 11:42:00,
2013-01-20 05:53:00,29.0,28.0,30.24,WSW,243,3.0,3.0,96,0.00,,,0.00,,2013-01-20 11:53:00,
2013-01-20 06:03:00,29.0,28.0,30.25,West,259,3.0,3.0,96,0.00,,,0.00,,2013-01-20 12:03:00,
2013-01-20 06:12:00,29.0,28.0,30.25,West,259,3.0,3.0,96,0.00,,,0.00,,2013-01-20 12:12:00,
2013-01-20 06:22:00,29.0,28.0,30.25,WSW,256,3.0,3.0,97,0.00,,,0.00,,2013-01-20 12:22:00,
2013-01-20 06:33:00,28.0,27.0,30.25,SW,217,0.0,0.0,97,0.00,,,0.00,,2013-01-20 12:33:00,
2013-01-20 06:43:00,28.0,27.0,30.25,SW,217,0.0,0.0,97,0.00,,,0.00,,2013-01-20 12:43:00,
2013-01-20 06:52:00,28.0,27.0,30.25,West,269,3.0,4.0,97,0.00,,,0.00,,2013-01-20 12:52:00,
2013-01-20 07:02:00,29.0,28.0,30.25,WSW,246,4.0,4.0,97,0.00,,,0.00,,2013-01-20 13:02:00,
2013-01-20 07:12:00,29.0,28.0,30.25,WSW,246,4.0,4.0,97,0.00,,,0.00,,2013-01-20 13:12:00,
2013-01-20 07:23:00,28.0,27.0,30.26,WSW,248,4.0,4.0,97,0.00,,,0.00,,2013-01-20 13:23:00,
2013-01-20 07:33:00,28.0,27.0,30.27,WSW,245,5.0,5.0,97,0.00,,,0.00,,2013-01-20 13:33:00,
2013-01-20 07:42:00,28.0,27.0,30.27,WSW,245,5.0,5.0,97,0.00,,,0.00,,2013-01-20 13:42:00,
2013-01-20 07:53:00,28.0,28.0,30.27,WSW,253,4.0,5.0,98,0.00,,,0.00,,2013-01-20 13:53:00,
2013-01-20 08:02:00,28.0,28.0,30.27,SW,228,4.0,5.0,98,0.00,,,0.00,,2013-01-20 14:02:00,
2013-01-20 08:12:00,28.0,28.0,30.27,SW,228,4.0,5.0,98,0.00,,,0.00,,2013-01-20 14:12:00,
2013-01-20 08:22:00,31.0,31.0,30.28,SW,222,4.0,4.0,98,0.00,,,0.00,,2013-01-20 14:22:00,
2013-01-20 08:32:00,34.0,33.0,30.28,WSW,245,4.0,4.0,97,0.00,,,0.00,,2013-01-20 14:32:00,
2013-01-20 08:42:00,34.0,33.0,30.28,WSW,245,4.0,4.0,97,0.00,,,0.00,,2013-01-20 14:42:00,
2013-01-20 08:53:00,36.0,35.0,30.28,West,271,6.0,7.0,96,0.00,,,0.00,,2013-01-20 14:53:00,
2013-01-20 09:03:00,38.0,36.0,30.28,WSW,242,7.0,7.0,94,0.00,,,0.00,,2013-01-20 15:03:00,
2013-01-20 09:12:00,38.0,36.0,30.28,WSW,242,7.0,7.0,94,0.00,,,0.00,,2013-01-20 15:12:00,
2013-01-20 09:23:00,39.0,37.0,30.29,WSW,245,6.0,6.0,92,0.00,,,0.00,,2013-01-20 15:23:00,
2013-01-20 09:33:00,41.0,40.0,30.29,WSW,249,6.0,6.0,96,0.00,,,0.00,,2013-01-20 15:33:00,
2013-01-20 09:42:00,41.0,40.0,30.29,WSW,249,6.0,6.0,96,0.00,,,0.00,,2013-01-20 15:42:00,
2013-01-20 09:52:00,42.0,41.0,30.29,WSW,256,7.0,8.0,98,0.00,,,0.00,,2013-01-20 15:52:00,
2013-01-20 10:03:00,44.0,44.0,30.29,WSW,243,6.0,8.0,100,0.00,,,0.00,,2013-01-20 16:03:00,
2013-01-20 10:12:00,44.0,44.0,30.29,WSW,243,6.0,8.0,100,0.00,,,0.00,,2013-01-20 16:12:00,
2013-01-20 10:23:00,46.0,46.0,30.29,WSW,255,6.0,6.0,100,0.00,,,0.00,,2013-01-20 16:23:00,
2013-01-20 10:33:00,47.0,47.0,30.29,WSW,242,5.0,5.0,100,0.00,,,0.00,,2013-01-20 16:33:00,
2013-01-20 10:42:00,47.0,47.0,30.29,WSW,242,5.0,5.0,100,0.00,,,0.00,,2013-01-20 16:42:00,
2013-01-20 10:53:00,49.0,49.0,30.29,West,259,5.0,5.0,99,0.00,,,0.00,,2013-01-20 16:53:00,
2013-01-20 11:03:00,52.0,51.0,30.29,West,271,5.0,5.0,98,0.00,,,0.00,,2013-01-20 17:03:00,
2013-01-20 11:12:00,52.0,51.0,30.29,West,271,5.0,5.0,98,0.00,,,0.00,,2013-01-20 17:12:00,
2013-01-20 11:22:00,53.0,52.0,30.28,WSW,257,5.0,5.0,98,0.00,,,0.00,,2013-01-20 17:22:00,
2013-01-20 11:33:00,57.0,56.0,30.27,SW,222,4.0,4.0,96,0.00,,,0.00,,2013-01-20 17:33:00,
2013-01-20 11:42:00,57.0,56.0,30.27,SW,222,4.0,4.0,96,0.00,,,0.00,,2013-01-20 17:42:00,
2013-01-20 11:52:00,60.0,57.0,30.26,WSW,255,4.0,6.0,91,0.00,,,0.00,,2013-01-20 17:52:00,
2013-01-20 12:03:00,62.0,58.0,30.25,SW,214,1.0,3.0,88,0.00,,,0.00,,2013-01-20 18:03:00,
2013-01-20 12:12:00,66.0,61.0,30.23,WSW,252,3.0,4.0,85,0.00,,,0.00,,2013-01-20 18:12:00,
2013-01-20 12:23:00,66.0,61.0,30.23,WSW,252,3.0,4.0,85,0.00,,,0.00,,2013-01-20 18:23:00,
2013-01-20 12:33:00,66.0,60.0,30.22,West,276,5.0,5.0,82,0.00,,,0.00,,2013-01-20 18:33:00,
2013-01-20 12:43:00,66.0,60.0,30.22,West,276,5.0,5.0,82,0.00,,,0.00,,2013-01-20 18:43:00,
2013-01-20 12:53:00,66.0,60.0,30.20,West,260,4.0,6.0,82,0.00,,,0.00,,2013-01-20 18:53:00,
2013-01-20 13:02:00,67.0,61.0,30.18,WSW,249,5.0,6.0,81,0.00,,,0.00,,2013-01-20 19:02:00,
2013-01-20 13:12:00,67.0,61.0,30.18,WSW,249,5.0,6.0,81,0.00,,,0.00,,2013-01-20 19:12:00,
2013-01-20 13:22:00,68.0,62.0,30.17,WSW,238,4.0,5.0,81,0.00,,,0.00,,2013-01-20 19:22:00,
2013-01-20 13:33:00,69.0,62.0,30.15,WSW,238,3.0,4.0,79,0.00,,,0.00,,2013-01-20 19:33:00,
2013-01-20 13:42:00,69.0,62.0,30.15,WSW,238,3.0,4.0,79,0.00,,,0.00,,2013-01-20 19:42:00,
2013-01-20 13:53:00,69.0,62.0,0.03,South,179,5.0,5.0,78,0.00,,,0.00,,2013-01-20 19:53:00,
2013-01-20 14:03:00,69.0,61.0,30.13,West,271,5.0,6.0,76,0.00,,,0.00,,2013-01-20 20:03:00,
2013-01-20 14:12:00,69.0,61.0,30.13,West,271,5.0,6.0,76,0.00,,,0.00,,2013-01-20 20:12:00,
2013-01-20 14:22:00,69.0,61.0,30.12,WNW,284,5.0,7.0,75,0.00,,,0.00,,2013-01-20 20:22:00,
2013-01-20 14:33:00,69.0,61.0,30.11,SW,233,5.0,7.0,76,0.00,,,0.00,,2013-01-20 20:33:00,
2013-01-20 14:42:00,69.0,61.0,30.11,SW,233,5.0,7.0,76,0.00,,,0.00,,2013-01-20 20:42:00,
2013-01-20 14:53:00,69.0,60.0,30.11,SSW,204,7.0,7.0,73,0.00,,,0.00,,2013-01-20 20:53:00,
2013-01-20 15:03:00,69.0,58.0,30.10,SW,232,6.0,6.0,67,0.00,,,0.00,,2013-01-20 21:03:00,
2013-01-20 15:13:00,69.0,58.0,30.10,SW,232,6.0,6.0,67,0.00,,,0.00,,2013-01-20 21:13:00,
2013-01-20 15:23:00,69.0,54.0,30.10,WNW,283,5.0,5.0,58,0.00,,,0.00,,2013-01-20 21:23:00,
2013-01-20 15:33:00,69.0,53.0,30.09,WSW,240,5.0,6.0,56,0.00,,,0.00,,2013-01-20 21:33:00,
2013-01-20 15:43:00,69.0,53.0,30.09,WSW,240,5.0,6.0,56,0.00,,,0.00,,2013-01-20 21:43:00,
2013-01-20 15:53:00,69.0,51.0,30.09,SW,235,7.0,7.0,53,0.00,,,0.00,,2013-01-20 21:53:00,
2013-01-20 16:03:00,68.0,47.0,30.09,SW,236,7.0,9.0,47,0.00,,,0.00,,2013-01-20 22:03:00,
2013-01-20 16:12:00,68.0,47.0,30.09,SW,236,7.0,9.0,47,0.00,,,0.00,,2013-01-20 22:12:00,
2013-01-20 16:22:00,69.0,43.0,30.08,WSW,253,5.0,5.0,39,0.00,,,0.00,,2013-01-20 22:22:00,
2013-01-20 16:33:00,68.0,41.0,30.08,WSW,245,6.0,6.0,37,0.00,,,0.00,,2013-01-20 22:33:00,
2013-01-20 16:43:00,68.0,41.0,30.08,WSW,245,6.0,6.0,37,0.00,,,0.00,,2013-01-20 22:43:00,
2013-01-20 16:53:00,67.0,39.0,30.08,West,259,8.0,8.0,36,0.00,,,0.00,,2013-01-20 22:53:00,
2013-01-20 17:03:00,67.0,40.0,30.08,West,266,5.0,6.0,37,0.00,,,0.00,,2013-01-20 23:03:00,
2013-01-20 17:13:00,67.0,40.0,30.08,West,266,5.0,6.0,37,0.00,,,0.00,,2013-01-20 23:13:00,
2013-01-20 17:23:00,66.0,39.0,30.07,West,262,4.0,4.0,37,0.00,,,0.00,,2013-01-20 23:23:00,
2013-01-20 17:33:00,64.0,39.0,30.07,WNW,301,0.0,3.0,40,0.00,,,0.00,,2013-01-20 23:33:00,
2013-01-20 17:42:00,64.0,39.0,30.07,WNW,301,0.0,3.0,40,0.00,,,0.00,,2013-01-20 23:42:00,
2013-01-20 17:53:00,62.0,39.0,30.07,WNW,294,0.0,0.0,42,0.00,,,0.00,,2013-01-20 23:53:00,
2013-01-20 18:03:00,60.0,38.0,30.07,WNW,294,0.0,0.0,44,0.00,,,0.00,,2013-01-21 00:03:00,
2013-01-20 18:13:00,60.0,38.0,30.07,WNW,294,0.0,0.0,44,0.00,,,0.00,,2013-01-21 00:13:00,
2013-01-20 18:22:00,58.0,37.0,30.07,WNW,294,0.0,0.0,46,0.00,,,0.00,,2013-01-21 00:22:00,
2013-01-20 18:33:00,57.0,37.0,30.07,WNW,294,0.0,0.0,47,0.00,,,0.00,,2013-01-21 00:33:00,
2013-01-20 18:43:00,57.0,37.0,30.07,WNW,294,0.0,0.0,47,0.00,,,0.00,,2013-01-21 00:43:00,
2013-01-20 18:53:00,57.0,36.0,30.07,WNW,294,0.0,0.0,46,0.00,,,0.00,,2013-01-21 00:53:00,
2013-01-20 19:03:00,58.0,37.0,30.08,WNW,294,0.0,0.0,45,0.00,,,0.00,,2013-01-21 01:03:00,
2013-01-20 19:12:00,58.0,37.0,30.08,WNW,294,0.0,0.0,45,0.00,,,0.00,,2013-01-21 01:12:00,
2013-01-20 19:23:00,56.0,36.0,30.09,WNW,294,0.0,0.0,46,0.00,,,0.00,,2013-01-21 01:23:00,
2013-01-20 19:33:00,50.0,33.0,30.10,WNW,294,0.0,0.0,52,0.00,,,0.00,,2013-01-21 01:33:00,
2013-01-20 19:43:00,50.0,33.0,30.10,WNW,294,0.0,0.0,52,0.00,,,0.00,,2013-01-21 01:43:00,
2013-01-20 19:53:00,49.0,34.0,30.10,WNW,294,0.0,0.0,55,0.00,,,0.00,,2013-01-21 01:53:00,
2013-01-20 20:03:00,49.0,33.0,30.11,WNW,294,0.0,0.0,54,0.00,,,0.00,,2013-01-21 02:03:00,
2013-01-20 20:12:00,49.0,33.0,30.11,WNW,294,0.0,0.0,54,0.00,,,0.00,,2013-01-21 02:12:00,
2013-01-20 20:23:00,48.0,33.0,30.11,WNW,294,0.0,0.0,56,0.00,,,0.00,,2013-01-21 02:23:00,
2013-01-20 20:33:00,46.0,32.0,30.11,WNW,294,0.0,0.0,58,0.00,,,0.00,,2013-01-21 02:33:00,
2013-01-20 20:43:00,46.0,32.0,30.11,WNW,294,0.0,0.0,58,0.00,,,0.00,,2013-01-21 02:43:00,
2013-01-20 20:53:00,44.0,32.0,30.12,WNW,294,0.0,0.0,62,0.00,,,0.00,,2013-01-21 02:53:00,
2013-01-20 21:03:00,42.0,31.0,30.13,WNW,294,0.0,0.0,66,0.00,,,0.00,,2013-01-21 03:03:00,
2013-01-20 21:12:00,42.0,31.0,30.13,WNW,294,0.0,0.0,66,0.00,,,0.00,,2013-01-21 03:12:00,
2013-01-20 21:23:00,40.0,31.0,30.13,SW,226,3.0,4.0,69,0.00,,,0.00,,2013-01-21 03:23:00,
2013-01-20 21:33:00,39.0,30.0,30.14,South,183,0.0,0.0,71,0.00,,,0.00,,2013-01-21 03:33:00,
2013-01-20 21:43:00,39.0,30.0,30.14,South,183,0.0,0.0,71,0.00,,,0.00,,2013-01-21 03:43:00,
2013-01-20 21:53:00,38.0,30.0,30.14,South,183,0.0,0.0,74,0.00,,,0.00,,2013-01-21 03:53:00,
2013-01-20 22:03:00,36.0,29.0,30.15,South,183,0.0,0.0,76,0.00,,,0.00,,2013-01-21 04:03:00,
2013-01-20 22:23:00,36.0,30.0,30.15,South,183,0.0,0.0,78,0.00,,,0.00,,2013-01-21 04:23:00,
2013-01-20 22:32:00,35.0,30.0,30.16,SW,222,0.0,0.0,81,0.00,,,0.00,,2013-01-21 04:32:00,
2013-01-20 22:42:00,35.0,30.0,30.16,SW,222,0.0,0.0,81,0.00,,,0.00,,2013-01-21 04:42:00,
2013-01-20 22:53:00,34.0,29.0,30.16,SW,222,0.0,0.0,82,0.00,,,0.00,,2013-01-21 04:53:00,
2013-01-20 23:03:00,34.0,29.0,30.16,WSW,250,0.0,0.0,83,0.00,,,0.00,,2013-01-21 05:03:00,
2013-01-20 23:12:00,34.0,29.0,30.16,WSW,250,0.0,0.0,83,0.00,,,0.00,,2013-01-21 05:12:00,
2013-01-20 23:22:00,34.0,30.0,30.17,WSW,250,0.0,0.0,85,0.00,,,0.00,,2013-01-21 05:22:00,
2013-01-20 23:33:00,34.0,30.0,30.17,WSW,250,0.0,0.0,86,0.00,,,0.00,,2013-01-21 05:33:00,
2013-01-20 23:42:00,34.0,30.0,30.17,WSW,250,0.0,0.0,86,0.00,,,0.00,,2013-01-21 05:42:00,
2013-01-20 23:52:00,34.0,30.0,30.17,WSW,250,0.0,0.0,85,0.00,,,0.00,,2013-01-21 05:52:00,